Location: Unspecified
(49.2170°N, 0.0000°E)
Time: 02:12:48
(UTC+00:00)

A-11 Canister half - Pass Details

Date: 17 June 2019
Orbit: 1527 x 1682 km, 47.3° (Epoch: 13 October)

Event Time Altitude Azimuth Distance (km) Brightness Sun altitude
Rises 04:33:54 0° 200° (SSW) 4,728 11.1 4.5°
Reaches altitude 10° 04:37:32 10° 189° (S) 3,727 10.7 5.0°
Maximum altitude 04:45:02 28° 135° (SE) 2,572 10.5 6.1°
Drops below altitude 10° 04:52:27 10° 82° (E) 3,698 12.7 7.1°
Sets 04:56:01 0° 71° (ENE) 4,684 13.8 7.6°
